When you browse on this site, cookies collect data to enhance your experience and personalize the content and advertising you see.
Visit our Privacy Policy to learn more. By continuing to use the site, you agree to this use of cookies and data.
  • In Slovakia
  • List of Countries
  • For 7 days
  • Water Temperature
  • Satellite Maps
  • Weather Map
  • Weather Widgets
  • user-avatar
    Login

    Hourly Weather Lubango

    Today, 25 June, Tuesday

    Time Temperature Precipitation Wind Pressure Humidity
    00:00 +11°C° 0 mm 1 mps 608 mmHg 31%
    01:00 +11°C° 0 mm 1 mps 607 mmHg 26%
    02:00 +11°C° 0 mm 1 mps 607 mmHg 24%
    03:00 +11°C° 0 mm 1 mps 607 mmHg 23%
    04:00 +10°C° 0 mm 1 mps 606 mmHg 21%
    05:00 +11°C° 0 mm 1 mps 607 mmHg 19%
    06:00 +11°C° 0 mm 1 mps 607 mmHg 18%
    07:00 +11°C° 0 mm 1 mps 608 mmHg 16%
    08:00 +15°C° 0 mm 1 mps 609 mmHg 15%
    09:00 +19°C° 0 mm 1 mps 611 mmHg 14%
    10:00 +23°C° 0 mm 1 mps 612 mmHg 12%
    11:00 +24°C° 0 mm 2 mps 612 mmHg 12%
    12:00 +25°C° 0 mm 2 mps 612 mmHg 12%
    13:00 +25°C° 0 mm 3 mps 611 mmHg 12%
    14:00 +25°C° 0 mm 3 mps 611 mmHg 12%
    15:00 +24°C° 0 mm 3 mps 610 mmHg 13%
    16:00 +24°C° 0 mm 3 mps 610 mmHg 14%
    17:00 +19°C° 0 mm 2 mps 609 mmHg 24%
    18:00 +15°C° 0 mm 2 mps 608 mmHg 35%
    19:00 +12°C° 0 mm 2 mps 607 mmHg 46%
    20:00 +12°C° 0 mm 1 mps 607 mmHg 43%
    21:00 +12°C° 0 mm 1 mps 608 mmHg 39%
    22:00 +12°C° 0 mm 1 mps 608 mmHg 35%
    23:00 +12°C° 0 mm 1 mps 608 mmHg 34%

    Tomorrow, 26 June, Wednesday

    Time Temperature Precipitation Wind Pressure Humidity
    00:00 +11°C° 0 mm 1 mps 608 mmHg 32%
    01:00 +11°C° 0 mm 1 mps 608 mmHg 30%
    02:00 +11°C° 0 mm 1 mps 608 mmHg 30%
    03:00 +11°C° 0 mm 1 mps 607 mmHg 29%
    04:00 +11°C° 0 mm 1 mps 607 mmHg 29%
    05:00 +11°C° 0 mm 1 mps 608 mmHg 30%
    06:00 +11°C° 0 mm 1 mps 608 mmHg 30%
    07:00 +11°C° 0 mm 1 mps 608 mmHg 31%
    08:00 +14°C° 0 mm 1 mps 610 mmHg 26%
    09:00 +19°C° 0 mm 1 mps 611 mmHg 22%
    10:00 +22°C° 0 mm 1 mps 612 mmHg 18%
    11:00 +23°C° 0 mm 2 mps 612 mmHg 17%
    12:00 +24°C° 0 mm 2 mps 612 mmHg 17%
    13:00 +25°C° 0 mm 3 mps 612 mmHg 16%
    14:00 +25°C° 0 mm 3 mps 611 mmHg 17%
    15:00 +24°C° 0 mm 3 mps 611 mmHg 18%
    16:00 +22°C° 0 mm 3 mps 610 mmHg 18%
    17:00 +19°C° 0 mm 2 mps 609 mmHg 28%
    18:00 +15°C° 0 mm 2 mps 608 mmHg 37%
    19:00 +12°C° 0 mm 1 mps 608 mmHg 47%
    20:00 +12°C° 0 mm 1 mps 608 mmHg 46%
    21:00 +12°C° 0 mm 1 mps 608 mmHg 45%
    22:00 +12°C° 0 mm 1 mps 609 mmHg 44%
    23:00 +11°C° 0 mm 1 mps 609 mmHg 44%

    Day after tomorrow, 27 June, Thursday

    Time Temperature Precipitation Wind Pressure Humidity
    00:00 +11°C° 0 mm 1 mps 608 mmHg 44%
    01:00 +11°C° 0 mm 1 mps 608 mmHg 44%
    02:00 +11°C° 0 mm 1 mps 608 mmHg 44%
    03:00 +11°C° 0 mm 1 mps 608 mmHg 43%
    04:00 +11°C° 0 mm 1 mps 607 mmHg 42%
    05:00 +11°C° 0 mm 1 mps 608 mmHg 41%
    06:00 +12°C° 0 mm 1 mps 608 mmHg 39%
    07:00 +12°C° 0 mm 1 mps 609 mmHg 38%
    08:00 +15°C° 0 mm 1 mps 610 mmHg 33%
    09:00 +19°C° 0 mm 2 mps 612 mmHg 28%
    10:00 +23°C° 0 mm 2 mps 613 mmHg 22%
    11:00 +24°C° 0 mm 2 mps 613 mmHg 21%
    12:00 +25°C° 0 mm 3 mps 612 mmHg 20%
    13:00 +26°C° 0 mm 3 mps 612 mmHg 19%
    14:00 +25°C° 0 mm 3 mps 611 mmHg 21%
    15:00 +24°C° 0 mm 3 mps 611 mmHg 22%
    16:00 +24°C° 0 mm 3 mps 610 mmHg 24%
    17:00 +19°C° 0 mm 2 mps 609 mmHg 35%
    18:00 +16°C° 0 mm 2 mps 609 mmHg 46%
    19:00 +12°C° 0 mm 1 mps 608 mmHg 57%
    20:00 +12°C° 0 mm 1 mps 608 mmHg 54%
    21:00 +12°C° 0 mm 1 mps 608 mmHg 51%
    22:00 +12°C° 0 mm 1 mps 609 mmHg 48%
    23:00 +11°C° 0 mm 0 mps 609 mmHg 46%

    28 June, Friday

    Time Temperature Precipitation Wind Pressure Humidity
    00:00 +11°C° 0 mm 0 mps 609 mmHg 45%
    01:00 +11°C° 0 mm 0 mps 608 mmHg 43%
    02:00 +12°C° 0 mm 1 mps 608 mmHg 43%
    03:00 +12°C° 0 mm 1 mps 608 mmHg 43%
    04:00 +12°C° 0 mm 1 mps 608 mmHg 43%
    05:00 +12°C° 0 mm 1 mps 608 mmHg 43%
    06:00 +12°C° 0 mm 1 mps 609 mmHg 43%
    07:00 +12°C° 0 mm 2 mps 609 mmHg 43%
    08:00 +16°C° 0 mm 2 mps 610 mmHg 36%
    09:00 +19°C° 0 mm 2 mps 611 mmHg 30%
    10:00 +23°C° 0 mm 2 mps 613 mmHg 23%
    11:00 +24°C° 0 mm 2 mps 612 mmHg 22%
    12:00 +25°C° 0 mm 2 mps 612 mmHg 20%
    13:00 +27°C° 0 mm 2 mps 612 mmHg 19%
    14:00 +26°C° 0 mm 2 mps 612 mmHg 20%
    15:00 +26°C° 0 mm 2 mps 611 mmHg 20%
    16:00 +25°C° 0 mm 2 mps 610 mmHg 21%
    17:00 +21°C° 0 mm 2 mps 610 mmHg 28%
    18:00 +18°C° 0 mm 2 mps 609 mmHg 35%
    19:00 +15°C° 0 mm 1 mps 608 mmHg 42%
    20:00 +14°C° 0 mm 1 mps 609 mmHg 42%
    21:00 +14°C° 0 mm 1 mps 609 mmHg 41%
    22:00 +14°C° 0 mm 1 mps 609 mmHg 41%
    23:00 +14°C° 0 mm 1 mps 609 mmHg 40%

    29 June, Saturday

    Time Temperature Precipitation Wind Pressure Humidity
    00:00 +14°C° 0 mm 1 mps 609 mmHg 39%
    01:00 +14°C° 0 mm 1 mps 609 mmHg 38%
    02:00 +14°C° 0 mm 1 mps 609 mmHg 38%
    03:00 +13°C° 0 mm 1 mps 609 mmHg 39%
    04:00 +13°C° 0 mm 2 mps 608 mmHg 39%
    05:00 +13°C° 0 mm 2 mps 609 mmHg 40%
    06:00 +13°C° 0 mm 2 mps 609 mmHg 40%
    07:00 +13°C° 0 mm 2 mps 609 mmHg 40%
    08:00 +16°C° 0 mm 2 mps 611 mmHg 34%
    09:00 +20°C° 0 mm 3 mps 612 mmHg 28%
    10:00 +23°C° 0 mm 4 mps 613 mmHg 22%
    11:00 +25°C° 0 mm 3 mps 613 mmHg 21%
    12:00 +26°C° 0 mm 3 mps 613 mmHg 19%
    13:00 +27°C° 0 mm 3 mps 613 mmHg 18%
    14:00 +27°C° 0 mm 3 mps 612 mmHg 19%
    15:00 +26°C° 0 mm 3 mps 611 mmHg 19%
    16:00 +26°C° 0 mm 2 mps 611 mmHg 20%
    17:00 +23°C° 0 mm 2 mps 610 mmHg 25%
    18:00 +19°C° 0 mm 2 mps 609 mmHg 30%
    19:00 +16°C° 0 mm 1 mps 609 mmHg 36%
    20:00 +15°C° 0 mm 1 mps 609 mmHg 37%
    21:00 +15°C° 0 mm 1 mps 609 mmHg 38%
    22:00 +14°C° 0 mm 1 mps 610 mmHg 38%
    23:00 +14°C° 0 mm 1 mps 610 mmHg 39%

    30 June, Sunday

    Time Temperature Precipitation Wind Pressure Humidity
    00:00 +14°C° 0 mm 2 mps 609 mmHg 40%
    01:00 +14°C° 0 mm 2 mps 609 mmHg 41%
    02:00 +13°C° 0 mm 2 mps 609 mmHg 41%
    03:00 +13°C° 0 mm 2 mps 609 mmHg 42%
    04:00 +13°C° 0 mm 2 mps 609 mmHg 42%
    05:00 +13°C° 0 mm 2 mps 609 mmHg 40%
    06:00 +13°C° 0 mm 2 mps 609 mmHg 39%
    07:00 +13°C° 0 mm 2 mps 610 mmHg 37%
    08:00 +16°C° 0 mm 2 mps 611 mmHg 31%
    09:00 +19°C° 0 mm 3 mps 612 mmHg 26%
    10:00 +24°C° 0 mm 3 mps 614 mmHg 20%
    11:00 +25°C° 0 mm 3 mps 613 mmHg 19%
    12:00 +26°C° 0 mm 2 mps 613 mmHg 17%
    13:00 +27°C° 0 mm 2 mps 613 mmHg 16%
    14:00 +27°C° 0 mm 2 mps 612 mmHg 16%
    15:00 +26°C° 0 mm 2 mps 612 mmHg 17%
    16:00 +26°C° 0 mm 2 mps 611 mmHg 17%
    17:00 +23°C° 0 mm 2 mps 611 mmHg 21%
    18:00 +20°C° 0 mm 1 mps 610 mmHg 25%
    19:00 +16°C° 0 mm 1 mps 609 mmHg 29%
    20:00 +16°C° 0 mm 1 mps 609 mmHg 29%
    21:00 +15°C° 0 mm 2 mps 609 mmHg 29%
    22:00 +15°C° 0 mm 2 mps 609 mmHg 30%
    23:00 +14°C° 0 mm 2 mps 609 mmHg 29%
    Show more